カタログに戻る

THORAD DELTA 1 DEB

運用中SSO
NORAD 8310·DEBRIS·🇺🇸 United States

打ち上げ Nov 15, 1974 から Vandenberg Space Force Base

Loading…

次のパス (今後24時間)

TLE

最新Source: Space-Track

元期: Sep 14, 2026, 08:36 UTC

1 08310U 74089BT  26257.35879587 -.00000023  00000-0  14292-3 0  9991
2 08310 101.5856 232.0967 0067227  51.5393 111.6942 12.40388691346479

AllMySatでTHORAD DELTA 1 DEBをリアルタイム追跡

Download on the App Store